Home   Weather   Rietberg   Past weeks

Flag for Germany Past Weather in Rietberg, North Rhine-Westphalia, Germany — Yesterday and Last 2 Weeks

Now
36 °F

Clear.


Feels Like: 29 °F
Forecast: 33 / 53 °F
Wind: 8 mph from Southwest

Location: Paderborn / Lippstadt

Current Time: Apr 26, 2017 at 12:34:11 am

Latest Report: Apr 25, 2017 at 11:50 pm


Visibility: 10 mi

Pressure: 29.80 "Hg

Humidity: 75%

Dew Point: 28 °F

Location of RietbergLocation

Past Weather in Rietberg — Graph

°F

Rietberg Temperature Yesterday

Maximum temperature yesterday: 50 °F (at 2:20 am)
Minimum temperature yesterday: 36 °F (at 11:20 pm)
Average temperature yesterday: 43 °F

High & Low Weather Summary for the Past Weeks

 TemperatureHumidityPressure
High55 °F (Apr 24, 12:20 pm)100% (Apr 22, 3:50 am)30.60 "Hg (Apr 22, 3:50 am)
Low27 °F (Apr 20, 5:50 am)34% (Apr 20, 6:20 pm)29.62 "Hg (Apr 25, 3:50 am)
Average43 °F63%30.20 "Hg
* Reported Apr 19 8:50 am — Apr 25 11:20 pm, Rietberg, Weather by CustomWeather, © 2017

Note: Actual official high and low records may vary slightly from our data, if they occured in-between our weather recording intervals... More about our weather records

Advertising

Rietberg Weather History for the Previous 24 Hours

Scroll right to see more
 ConditionsComfort  
Time TempWeatherWind HumidityBarometerVisibility
11:20 pm
Tue, Apr 25
36 °FClear.6 mph75%29.80 "Hg10 mi
10:50 pm37 °FClear.7 mph70%29.80 "Hg10 mi
10:20 pm37 °FClear.5 mph70%29.80 "Hg10 mi
9:50 pm39 °FClear.5 mph70%29.80 "Hg10 mi
9:20 pm41 °FPassing clouds.3 mph76%29.80 "HgN/A
8:20 pm43 °FScattered showers. Scattered clouds.7 mph71%29.80 "HgN/A
7:50 pm41 °FScattered showers. Scattered clouds.8 mph76%29.80 "HgN/A
7:20 pm41 °FSprinkles. Scattered clouds.10 mph76%29.77 "HgN/A
6:50 pm43 °FScattered clouds.9 mph66%29.77 "HgN/A
6:20 pm41 °FScattered clouds.9 mph70%29.77 "HgN/A
5:50 pm41 °FSprinkles. Scattered clouds.13 mph66%29.77 "HgN/A
5:20 pm46 °FRain showers. Scattered clouds.12 mph50%29.77 "HgN/A
4:50 pm46 °FScattered showers. Scattered clouds.12 mph57%29.77 "HgN/A
4:20 pm45 °FScattered clouds.16 mph66%29.77 "HgN/A
3:50 pm43 °FScattered showers. Scattered clouds.17 mph66%29.77 "HgN/A
3:20 pm43 °FSprinkles. Scattered clouds.16 mph61%29.74 "HgN/A
2:50 pm46 °FScattered clouds.16 mph53%29.74 "HgN/A
2:20 pm46 °FScattered clouds.14 mph46%29.74 "HgN/A
1:50 pm48 °FScattered clouds.12 mph43%29.71 "HgN/A
1:20 pm46 °FScattered clouds.15 mph53%29.71 "HgN/A
12:50 pm45 °FScattered clouds.16 mph49%29.71 "HgN/A
12:20 pm46 °FScattered clouds.12 mph53%29.71 "HgN/A
11:50 am45 °FScattered clouds.16 mph53%29.71 "HgN/A
11:20 am45 °FScattered clouds.15 mph53%29.71 "HgN/A
10:50 am43 °FScattered clouds.12 mph66%29.71 "HgN/A
10:20 am41 °FScattered clouds.8 mph81%29.68 "HgN/A
9:50 am39 °FSprinkles. Broken clouds.8 mph87%29.68 "HgN/A
9:20 am41 °FScattered showers. Broken clouds.13 mph87%29.68 "HgN/A
8:50 am41 °FBroken clouds.12 mph87%29.68 "HgN/A
8:20 am41 °FBroken clouds.13 mph87%29.68 "HgN/A
7:50 am39 °FBroken clouds.12 mph93%29.68 "HgN/A
7:20 am39 °FLight rain. Partly sunny.10 mph93%29.68 "Hg6 mi
6:50 am39 °FLight rain. Broken clouds.9 mph93%29.68 "Hg5 mi
6:20 am39 °FLight rain. Broken clouds.9 mph93%29.65 "Hg5 mi
5:50 am39 °FLight rain. Passing clouds.7 mph93%29.65 "Hg5 mi
4:50 am41 °FLight rain. Low clouds.9 mph93%29.65 "Hg4 mi
4:20 am43 °FLight rain. Passing clouds.8 mph93%29.65 "HgN/A
3:50 am48 °FPartly cloudy.10 mph71%29.62 "HgN/A
3:20 am48 °FPartly cloudy.8 mph66%29.65 "HgN/A
2:50 am48 °FPartly cloudy.9 mph66%29.65 "HgN/A
2:20 am50 °FPassing clouds.10 mph62%29.68 "HgN/A
1:50 am48 °FPassing clouds.7 mph66%29.68 "HgN/A
1:20 am48 °FClear.6 mph66%29.68 "Hg10 mi
12:50 am46 °FClear.5 mph76%29.71 "Hg10 mi
12:20 am46 °FClear.5 mph76%29.71 "Hg10 mi
Weather by CustomWeather, © 2017

See weather overviewHow to use our weather pages